06-04-2022, 00:00:08,    261,    1.7,    7.4,   0.00,   0.00, 1002.1,   78.4, -999.0
06-04-2022, 00:00:18,    241,    1.2,    7.4,   0.00,   0.00, 1002.2,   78.3, -999.0
06-04-2022, 00:00:28,    213,    2.3,    7.4,   0.00,   0.00, 1002.2,   78.4, -999.0
06-04-2022, 00:00:37,    241,    2.7,    7.4,   0.00,   0.00, 1002.1,   78.3, -999.0
06-04-2022, 00:00:48,    244,    0.1,    7.3,   0.00,   0.00, 1002.1,   78.4, -999.0
06-04-2022, 00:00:58,    244,    1.4,    7.3,   0.00,   0.00, 1002.1,   78.1, -999.0
06-04-2022, 00:01:07,    236,    2.7,    7.4,   0.00,   0.00, 1002.2,   78.4, -999.0
06-04-2022, 00:01:17,    237,    2.8,    7.3,   0.00,   0.00, 1002.2,   78.3, -999.0
06-04-2022, 00:01:28,    184,    0.6,    7.4,   0.00,   0.00, 1002.1,   78.3, -999.0
06-04-2022, 00:01:37,    186,    0.0,    7.3,   0.00,   0.00, 1002.1,   77.9, -999.0
06-04-2022, 00:01:47,    186,    0.0,    7.2,   0.00,   0.00, 1002.0,   77.8, -999.0
06-04-2022, 00:01:57,    189,    0.1,    7.4,   0.00,   0.00, 1002.1,   78.2, -999.0
06-04-2022, 00:02:07,    288,    0.8,    7.3,   0.00,   0.00, 1002.1,   78.1, -999.0
06-04-2022, 00:02:17,    243,    1.7,    7.4,   0.00,   0.00, 1002.2,   78.5, -999.0
06-04-2022, 00:02:27,    252,    0.1,    7.4,   0.00,   0.00, 1002.1,   78.1, -999.0
06-04-2022, 00:02:37,    241,    3.6,    7.4,   0.00,   0.00, 1002.1,   78.3, -999.0
06-04-2022, 00:02:47,    242,    3.7,    7.4,   0.00,   0.00, 1002.2,   78.3, -999.0
06-04-2022, 00:02:57,    216,    1.3,    7.4,   0.00,   0.00, 1002.2,   78.2, -999.0
06-04-2022, 00:03:07,    221,    2.9,    7.5,   0.00,   0.00, 1002.2,   78.2, -999.0
06-04-2022, 00:03:17,    189,    2.2,    7.4,   0.00,   0.00, 1002.1,   78.2, -999.0
06-04-2022, 00:03:27,    219,    1.2,    7.4,   0.00,   0.00, 1002.1,   78.2, -999.0
06-04-2022, 00:03:37,    236,    0.9,    7.4,   0.00,   0.00, 1002.1,   78.2, -999.0
06-04-2022, 00:03:46,    167,    1.2,    7.4,   0.00,   0.00, 1002.2,   78.2, -999.0
06-04-2022, 00:03:57,    242,    1.4,    7.4,   0.00,   0.00, 1002.1,   78.1, -999.0
06-04-2022, 00:04:07,    203,    3.1,    7.4,   0.00,   0.00, 1002.2,   78.1, -999.0
06-04-2022, 00:04:16,    209,    3.3,    7.5,   0.00,   0.00, 1002.1,   78.2, -999.0
06-04-2022, 00:04:26,    237,    2.5,    7.4,   0.00,   0.00, 1002.1,   78.2, -999.0
06-04-2022, 00:04:37,    238,    2.6,    7.4,   0.00,   0.00, 1002.2,   78.1, -999.0
06-04-2022, 00:04:46,    275,    2.8,    7.4,   0.00,   0.00, 1002.1,   78.0, -999.0
06-04-2022, 00:04:56,    238,    4.8,    7.4,   0.00,   0.00, 1002.1,   78.1, -999.0
06-04-2022, 00:05:07,    210,    0.5,    7.4,   0.00,   0.00, 1002.1,   77.9, -999.0
06-04-2022, 00:05:16,    197,    0.4,    7.4,   0.00,   0.00, 1002.2,   78.1, -999.0
06-04-2022, 00:05:26,    239,    2.1,    7.4,   0.00,   0.00, 1002.1,   78.1, -999.0
06-04-2022, 00:05:36,    219,    1.4,    7.5,   0.00,   0.00, 1002.1,   78.0, -999.0
06-04-2022, 00:05:46,    206,    4.4,    7.5,   0.00,   0.00, 1002.1,   78.0, -999.0
06-04-2022, 00:05:56,    260,    3.6,    7.4,   0.00,   0.00, 1002.1,   77.9, -999.0
06-04-2022, 00:06:06,    199,    4.1,    7.4,   0.00,   0.00, 1002.1,   78.0, -999.0
06-04-2022, 00:06:16,    195,    0.7,    7.3,   0.00,   0.00, 1002.1,   77.8, -999.0
06-04-2022, 00:06:26,    191,    0.3,    7.3,   0.00,   0.00, 1002.1,   77.6, -999.0
06-04-2022, 00:06:36,    204,    3.0,    7.4,   0.00,   0.00, 1002.2,   77.9, -999.0
06-04-2022, 00:06:46,    266,    2.4,    7.4,   0.00,   0.00, 1002.1,   77.8, -999.0
06-04-2022, 00:06:56,    195,    4.0,    7.4,   0.00,   0.00, 1002.1,   77.8, -999.0
06-04-2022, 00:07:06,    244,    1.8,    7.4,   0.00,   0.00, 1002.1,   77.9, -999.0
06-04-2022, 00:07:16,    251,    0.5,    7.3,   0.00,   0.00, 1002.1,   77.7, -999.0
06-04-2022, 00:07:25,    234,    4.7,    7.4,   0.00,   0.00, 1002.2,   78.0, -999.0
06-04-2022, 00:07:36,    194,    2.6,    7.5,   0.00,   0.00, 1002.2,   77.9, -999.0
06-04-2022, 00:07:46,    195,    1.1,    7.4,   0.00,   0.00, 1002.1,   77.9, -999.0
06-04-2022, 00:07:55,    195,    0.4,    7.5,   0.00,   0.00, 1002.1,   77.8, -999.0
06-04-2022, 00:08:05,    220,    1.0,    7.4,   0.00,   0.00, 1002.1,   77.8, -999.0
06-04-2022, 00:08:18,    200,    0.8,    7.4,   0.00,   0.00, 1002.2,   78.0, -999.0
06-04-2022, 00:08:25,    200,    0.7,    7.5,   0.00,   0.00, 1002.2,   77.9, -999.0
06-04-2022, 00:08:35,    231,    1.4,    7.4,   0.00,   0.00, 1002.2,   77.9, -999.0
06-04-2022, 00:08:45,    262,    2.9,    7.5,   0.00,   0.00, 1002.2,   77.8, -999.0
06-04-2022, 00:08:55,    198,    0.7,    7.4,   0.00,   0.00, 1002.1,   77.8, -999.0
06-04-2022, 00:09:05,    243,    2.1,    7.4,   0.00,   0.00, 1002.1,   77.7, -999.0
06-04-2022, 00:09:15,    248,    2.4,    7.5,   0.00,   0.00, 1002.2,   77.9, -999.0
06-04-2022, 00:09:25,    234,    3.3,    7.4,   0.00,   0.00, 1002.2,   77.8, -999.0
06-04-2022, 00:09:35,    257,    3.7,    7.5,   0.00,   0.00, 1002.2,   77.9, -999.0
06-04-2022, 00:09:45,    228,    4.1,    7.5,   0.00,   0.00, 1002.1,   77.9, -999.0
06-04-2022, 00:09:55,    220,    4.3,    7.4,   0.00,   0.00, 1002.1,   77.8, -999.0
06-04-2022, 00:10:05,    177,    4.0,    7.4,   0.00,   0.00, 1002.1,   77.8, -999.0
06-04-2022, 00:10:15,    182,    2.0,    7.4,   0.00,   0.00, 1002.2,   77.8, -999.0
06-04-2022, 00:10:25,    233,    2.9,    7.4,   0.00,   0.00, 1002.1,   77.8, -999.0
06-04-2022, 00:10:34,    218,    4.5,    7.5,   0.00,   0.00, 1002.1,   77.8, -999.0
06-04-2022, 00:10:45,    229,    2.2,    7.4,   0.00,   0.00, 1002.2,   77.7, -999.0
06-04-2022, 00:10:55,    220,    2.7,    7.4,   0.00,   0.00, 1002.1,   77.6, -999.0
06-04-2022, 00:11:04,    237,    2.2,    7.4,   0.00,   0.00, 1002.1,   77.7, -999.0
06-04-2022, 00:11:14,    232,    2.7,    7.4,   0.00,   0.00, 1002.1,   77.7, -999.0
06-04-2022, 00:11:25,    220,    1.2,    7.5,   0.00,   0.00, 1002.2,   77.8, -999.0
06-04-2022, 00:11:34,    207,    2.2,    7.5,   0.00,   0.00, 1002.2,   77.9, -999.0
06-04-2022, 00:11:44,    237,    2.1,    7.5,   0.00,   0.00, 1002.2,   77.8, -999.0
06-04-2022, 00:11:55,    222,    2.7,    7.5,   0.00,   0.00, 1002.1,   77.8, -999.0
06-04-2022, 00:12:04,    207,    2.6,    7.5,   0.00,   0.00, 1002.1,   77.7, -999.0
06-04-2022, 00:12:14,    234,    0.8,    7.5,   0.00,   0.00, 1002.1,   77.5, -999.0
06-04-2022, 00:12:24,    234,    1.0,    7.5,   0.00,   0.00, 1002.1,   77.6, -999.0
06-04-2022, 00:12:34,    193,    0.3,    7.4,   0.00,   0.00, 1002.1,   77.4, -999.0
06-04-2022, 00:12:44,    243,    1.2,    7.4,   0.00,   0.00, 1002.1,   77.6, -999.0
06-04-2022, 00:12:54,    239,    2.0,    7.5,   0.00,   0.00, 1002.2,   77.6, -999.0
06-04-2022, 00:13:04,    232,    2.5,    7.5,   0.00,   0.00, 1002.2,   77.6, -999.0
06-04-2022, 00:13:14,    217,    2.6,    7.5,   0.00,   0.00, 1002.2,   77.6, -999.0
06-04-2022, 00:13:24,    218,    2.8,    7.4,   0.00,   0.00, 1002.2,   77.5, -999.0
06-04-2022, 00:13:34,    198,    1.8,    7.4,   0.00,   0.00, 1002.2,   77.6, -999.0
06-04-2022, 00:13:44,    217,    2.1,    7.4,   0.00,   0.00, 1002.1,   77.5, -999.0
06-04-2022, 00:13:54,    192,    1.7,    7.4,   0.00,   0.00, 1002.1,   77.4, -999.0
06-04-2022, 00:14:04,    200,    1.0,    7.5,   0.00,   0.00, 1002.1,   77.5, -999.0
06-04-2022, 00:14:13,    190,    1.8,    7.5,   0.00,   0.00, 1002.2,   77.6, -999.0
06-04-2022, 00:14:24,    191,    0.5,    7.4,   0.00,   0.00, 1002.1,   77.3, -999.0
06-04-2022, 00:14:34,    226,    0.3,    7.4,   0.00,   0.00, 1002.1,   77.2, -999.0
06-04-2022, 00:14:43,    200,    0.6,    7.4,   0.00,   0.00, 1002.1,   77.4, -999.0
06-04-2022, 00:14:53,    231,    2.0,    7.4,   0.00,   0.00, 1002.2,   77.6, -999.0
06-04-2022, 00:15:04,    226,    3.5,    7.4,   0.00,   0.00, 1002.1,   77.6, -999.0
06-04-2022, 00:15:13,    228,    4.4,    7.4,   0.00,   0.00, 1002.1,   77.4, -999.0
06-04-2022, 00:15:23,    239,    2.9,    7.5,   0.00,   0.00, 1002.1,   77.4, -999.0
06-04-2022, 00:15:33,    239,    1.1,    7.4,   0.00,   0.00, 1002.1,   77.4, -999.0
06-04-2022, 00:15:43,    246,    1.2,    7.4,   0.00,   0.00, 1002.1,   77.4, -999.0
06-04-2022, 00:15:53,    245,    0.4,    7.4,   0.00,   0.00, 1002.1,   77.3, -999.0
06-04-2022, 00:16:03,    243,    0.1,    7.4,   0.00,   0.00, 1002.1,   77.1, -999.0
06-04-2022, 00:16:13,    252,    0.2,    7.4,   0.00,   0.00, 1002.1,   77.3, -999.0
06-04-2022, 00:16:23,    253,    1.1,    7.4,   0.00,   0.00, 1002.1,   77.5, -999.0
06-04-2022, 00:16:33,    249,    0.2,    7.4,   0.00,   0.00, 1002.1,   77.3, -999.0
06-04-2022, 00:16:43,    251,    0.8,    7.5,   0.00,   0.00, 1002.1,   77.3, -999.0
06-04-2022, 00:16:53,    239,    4.0,    7.5,   0.00,   0.00, 1002.1,   77.4, -999.0
06-04-2022, 00:17:03,    210,    2.7,    7.5,   0.00,   0.00, 1002.1,   77.3, -999.0
06-04-2022, 00:17:13,    241,    1.7,    7.5,   0.00,   0.00, 1002.1,   77.4, -999.0
06-04-2022, 00:17:22,    200,    2.6,    7.5,   0.00,   0.00, 1002.1,   77.4, -999.0
06-04-2022, 00:17:33,    234,    3.0,    7.5,   0.00,   0.00, 1002.1,   77.4, -999.0
06-04-2022, 00:17:43,    200,    3.5,    7.4,   0.00,   0.00, 1002.1,   77.3, -999.0
06-04-2022, 00:17:52,    211,    2.8,    7.5,   0.00,   0.00, 1002.1,   77.3, -999.0
06-04-2022, 00:18:03,    235,    2.0,    7.4,   0.00,   0.00, 1002.1,   77.3, -999.0
06-04-2022, 00:18:13,    242,    2.0,    7.5,   0.00,   0.00, 1002.1,   77.3, -999.0
06-04-2022, 00:18:22,    249,    1.5,    7.4,   0.00,   0.00, 1002.1,   77.2, -999.0
06-04-2022, 00:18:32,    186,    1.0,    7.3,   0.00,   0.00, 1002.1,   77.4, -999.0
06-04-2022, 00:18:43,    226,    1.8,    7.4,   0.00,   0.00, 1002.1,   77.3, -999.0
06-04-2022, 00:18:52,    193,    4.1,    7.5,   0.00,   0.00, 1002.1,   77.3, -999.0
06-04-2022, 00:19:02,    225,    1.3,    7.4,   0.00,   0.00, 1002.1,   77.2, -999.0
06-04-2022, 00:19:12,    216,    1.8,    7.5,   0.00,   0.00, 1002.1,   77.1, -999.0
06-04-2022, 00:19:22,    228,    1.3,    7.4,   0.00,   0.00, 1002.1,   77.2, -999.0
06-04-2022, 00:19:32,    170,    0.7,    7.4,   0.00,   0.00, 1002.1,   77.1, -999.0
06-04-2022, 00:19:42,    204,    1.5,    7.4,   0.00,   0.00, 1002.1,   77.1, -999.0
06-04-2022, 00:19:52,    165,    1.1,    7.5,   0.00,   0.00, 1002.1,   77.2, -999.0
06-04-2022, 00:20:02,    202,    4.0,    7.4,   0.00,   0.00, 1002.1,   77.1, -999.0
06-04-2022, 00:20:12,    198,    3.1,    7.4,   0.00,   0.00, 1002.1,   77.1, -999.0
06-04-2022, 00:20:22,    218,    1.5,    7.5,   0.00,   0.00, 1002.1,   77.0, -999.0
06-04-2022, 00:20:32,    208,    0.6,    7.4,   0.00,   0.00, 1002.1,   77.0, -999.0
06-04-2022, 00:20:42,    210,    0.8,    7.4,   0.00,   0.00, 1002.1,   77.0, -999.0
06-04-2022, 00:20:52,    207,    0.8,    7.4,   0.00,   0.00, 1002.1,   77.0, -999.0
06-04-2022, 00:21:01,    210,    1.4,    7.4,   0.00,   0.00, 1002.0,   77.1, -999.0
06-04-2022, 00:21:12,    160,    1.9,    7.4,   0.00,   0.00, 1002.0,   77.0, -999.0
06-04-2022, 00:21:22,    228,    2.1,    7.4,   0.00,   0.00, 1002.0,   77.0, -999.0
06-04-2022, 00:21:31,    211,    1.7,    7.4,   0.00,   0.00, 1001.9,   77.0, -999.0
06-04-2022, 00:21:43,    227,    0.1,    7.2,   0.00,   0.00, 1002.0,   76.7, -999.0
06-04-2022, 00:21:52,    209,    1.9,    7.5,   0.00,   0.00, 1002.0,   77.1, -999.0
06-04-2022, 00:22:01,    203,    1.7,    7.4,   0.00,   0.00, 1002.0,   77.1, -999.0
06-04-2022, 00:22:11,    245,    3.4,    7.4,   0.00,   0.00, 1002.0,   76.9, -999.0
06-04-2022, 00:22:21,    211,    2.9,    7.4,   0.00,   0.00, 1002.0,   77.0, -999.0
06-04-2022, 00:22:31,    196,    4.7,    7.5,   0.00,   0.00, 1002.0,   77.0, -999.0
06-04-2022, 00:22:41,    263,    4.6,    7.5,   0.00,   0.00, 1002.0,   76.9, -999.0
06-04-2022, 00:22:51,    274,    1.4,    7.4,   0.00,   0.00, 1002.0,   76.9, -999.0
06-04-2022, 00:23:01,    245,    1.6,    7.5,   0.00,   0.00, 1002.0,   77.0, -999.0
06-04-2022, 00:23:11,    223,    1.2,    7.4,   0.00,   0.00, 1001.9,   76.7, -999.0
06-04-2022, 00:23:21,    201,    0.3,    7.4,   0.00,   0.00, 1002.0,   76.9, -999.0
06-04-2022, 00:23:31,    199,    0.3,    7.5,   0.00,   0.00, 1002.0,   76.8, -999.0
06-04-2022, 00:23:41,    210,    0.7,    7.5,   0.00,   0.00, 1002.0,   76.9, -999.0
06-04-2022, 00:23:51,    183,    1.2,    7.6,   0.00,   0.00, 1002.0,   76.8, -999.0
06-04-2022, 00:24:01,    208,    0.2,    7.4,   0.00,   0.00, 1002.0,   76.6, -999.0
06-04-2022, 00:24:11,    235,    1.9,    7.5,   0.00,   0.00, 1002.0,   76.8, -999.0
06-04-2022, 00:24:21,    180,    2.3,    7.5,   0.00,   0.00, 1002.0,   76.9, -999.0
06-04-2022, 00:24:31,    186,    0.5,    7.4,   0.00,   0.00, 1001.9,   76.6, -999.0
06-04-2022, 00:24:40,    190,    0.0,    7.4,   0.00,   0.00, 1001.9,   76.5, -999.0
06-04-2022, 00:24:51,    211,    0.5,    7.5,   0.00,   0.00, 1002.0,   76.7, -999.0
06-04-2022, 00:25:01,    211,    0.5,    7.5,   0.00,   0.00, 1002.0,   76.8, -999.0
06-04-2022, 00:25:10,    283,    0.1,    7.4,   0.00,   0.00, 1001.9,   76.6, -999.0
06-04-2022, 00:25:20,    247,    0.5,    7.4,   0.00,   0.00, 1002.0,   76.7, -999.0
06-04-2022, 00:25:31,    247,    0.8,    7.4,   0.00,   0.00, 1002.0,   76.6, -999.0
06-04-2022, 00:25:40,    228,    0.7,    7.4,   0.00,   0.00, 1001.9,   76.5, -999.0
06-04-2022, 00:25:50,    226,    1.4,    7.5,   0.00,   0.00, 1002.0,   76.6, -999.0
06-04-2022, 00:26:00,    219,    4.1,    7.5,   0.00,   0.00, 1002.0,   76.6, -999.0
06-04-2022, 00:26:10,    183,    1.7,    7.4,   0.00,   0.00, 1002.0,   76.6, -999.0
06-04-2022, 00:26:20,    216,    1.7,    7.4,   0.00,   0.00, 1002.0,   76.6, -999.0
06-04-2022, 00:26:30,    234,    1.0,    7.5,   0.00,   0.00, 1002.0,   76.6, -999.0
06-04-2022, 00:26:40,    241,    1.4,    7.5,   0.00,   0.00, 1002.0,   76.6, -999.0
06-04-2022, 00:26:50,    229,    1.6,    7.3,   0.00,   0.00, 1002.0,   76.6, -999.0
06-04-2022, 00:27:00,    228,    0.8,    7.4,   0.00,   0.00, 1002.0,   76.6, -999.0
06-04-2022, 00:27:10,    217,    1.1,    7.3,   0.00,   0.00, 1001.9,   76.6, -999.0
06-04-2022, 00:27:20,    183,    1.7,    7.4,   0.00,   0.00, 1002.0,   76.6, -999.0
06-04-2022, 00:27:30,    192,    0.4,    7.4,   0.00,   0.00, 1001.9,   76.4, -999.0
06-04-2022, 00:27:40,    211,    0.0,    7.4,   0.00,   0.00, 1001.8,   76.2, -999.0
06-04-2022, 00:27:49,    222,    1.0,    7.3,   0.00,   0.00, 1002.0,   76.6, -999.0
06-04-2022, 00:28:00,    231,    0.9,    7.4,   0.00,   0.00, 1001.9,   76.7, -999.0
06-04-2022, 00:28:10,    228,    0.6,    7.5,   0.00,   0.00, 1002.0,   76.6, -999.0
06-04-2022, 00:28:19,    185,    0.7,    7.4,   0.00,   0.00, 1002.0,   76.6, -999.0
06-04-2022, 00:28:30,    220,    0.8,    7.4,   0.00,   0.00, 1001.9,   76.5, -999.0
06-04-2022, 00:28:40,    218,    1.6,    7.3,   0.00,   0.00, 1002.0,   76.5, -999.0
06-04-2022, 00:28:49,    213,    0.0,    7.4,   0.00,   0.00, 1001.8,   76.3, -999.0
06-04-2022, 00:28:59,    194,    1.6,    7.4,   0.00,   0.00, 1002.0,   76.5, -999.0
06-04-2022, 00:29:09,    202,    1.7,    7.4,   0.00,   0.00, 1001.9,   76.4, -999.0
06-04-2022, 00:29:19,    205,    0.8,    7.4,   0.00,   0.00, 1001.9,   76.3, -999.0
06-04-2022, 00:29:29,    176,    0.8,    7.4,   0.00,   0.00, 1002.0,   76.4, -999.0
06-04-2022, 00:29:39,    202,    2.0,    7.4,   0.00,   0.00, 1001.9,   76.4, -999.0
06-04-2022, 00:29:49,    227,    1.8,    7.5,   0.00,   0.00, 1001.9,   76.4, -999.0
06-04-2022, 00:29:59,    197,    0.8,    7.4,   0.00,   0.00, 1001.9,   76.4, -999.0
06-04-2022, 00:30:09,    233,    1.3,    7.3,   0.00,   0.00, 1001.9,   76.3, -999.0
06-04-2022, 00:30:19,    218,    1.3,    7.4,   0.00,   0.00, 1001.9,   76.5, -999.0
06-04-2022, 00:30:29,    247,    3.2,    7.4,   0.00,   0.00, 1001.9,   76.4, -999.0
06-04-2022, 00:30:39,    245,    2.8,    7.4,   0.00,   0.00, 1001.9,   76.5, -999.0
06-04-2022, 00:30:49,    230,    1.0,    7.4,   0.00,   0.00, 1001.9,   76.5, -999.0
06-04-2022, 00:30:59,    230,    0.0,    7.3,   0.00,   0.00, 1001.8,   76.1, -999.0
06-04-2022, 00:31:09,    231,    0.0,    7.3,   0.00,   0.00, 1001.8,   75.9, -999.0
06-04-2022, 00:31:19,    243,    0.4,    7.3,   0.00,   0.00, 1001.9,   76.2, -999.0
06-04-2022, 00:31:28,    184,    0.3,    7.5,   0.00,   0.00, 1001.9,   76.3, -999.0
06-04-2022, 00:31:39,    184,    0.0,    7.2,   0.00,   0.00, 1001.7,   75.9, -999.0
06-04-2022, 00:31:49,    188,    0.0,    7.4,   0.00,   0.00, 1001.7,   76.1, -999.0
06-04-2022, 00:31:58,    211,    0.7,    7.4,   0.00,   0.00, 1001.8,   76.3, -999.0
06-04-2022, 00:32:08,    211,    0.2,    7.4,   0.00,   0.00, 1001.8,   76.2, -999.0
06-04-2022, 00:32:19,    211,    0.0,    7.2,   0.00,   0.00, 1001.7,   75.9, -999.0
06-04-2022, 00:32:28,    227,    1.8,    7.4,   0.00,   0.00, 1001.8,   76.3, -999.0
06-04-2022, 00:32:38,    189,    0.7,    7.3,   0.00,   0.00, 1001.9,   76.2, -999.0
06-04-2022, 00:32:48,    235,    1.7,    7.4,   0.00,   0.00, 1001.9,   76.2, -999.0
06-04-2022, 00:32:58,    232,    3.0,    7.3,   0.00,   0.00, 1001.9,   76.1, -999.0
06-04-2022, 00:33:08,    241,    1.5,    7.4,   0.00,   0.00, 1001.9,   76.2, -999.0
06-04-2022, 00:33:18,    220,    1.3,    7.4,   0.00,   0.00, 1001.8,   76.2, -999.0
06-04-2022, 00:33:28,    220,    0.1,    7.3,   0.00,   0.00, 1001.8,   75.9, -999.0
06-04-2022, 00:33:38,    214,    2.2,    7.4,   0.00,   0.00, 1001.8,   76.0, -999.0
06-04-2022, 00:33:48,    174,    1.7,    7.2,   0.00,   0.00, 1001.9,   76.0, -999.0
06-04-2022, 00:33:58,    182,    0.4,    7.4,   0.00,   0.00, 1001.8,   75.8, -999.0
06-04-2022, 00:34:08,    248,    1.4,    7.3,   0.00,   0.00, 1001.8,   75.9, -999.0
06-04-2022, 00:34:18,    233,    1.4,    7.3,   0.00,   0.00, 1001.8,   76.0, -999.0
06-04-2022, 00:34:28,    221,    3.0,    7.3,   0.00,   0.00, 1001.8,   76.0, -999.0
06-04-2022, 00:34:38,    241,    3.3,    7.3,   0.00,   0.00, 1001.8,   75.9, -999.0
06-04-2022, 00:34:48,    255,    3.5,    7.3,   0.00,   0.00, 1001.8,   76.0, -999.0
06-04-2022, 00:34:58,    193,    0.7,    7.3,   0.00,   0.00, 1001.8,   75.9, -999.0
06-04-2022, 00:35:07,    197,    3.2,    7.3,   0.00,   0.00, 1001.8,   75.9, -999.0
06-04-2022, 00:35:18,    218,    2.4,    7.3,   0.00,   0.00, 1001.8,   75.9, -999.0
06-04-2022, 00:35:28,    222,    2.2,    7.3,   0.00,   0.00, 1001.8,   75.9, -999.0
06-04-2022, 00:35:37,    218,    1.5,    7.3,   0.00,   0.00, 1001.8,   76.0, -999.0
06-04-2022, 00:35:47,    215,    2.3,    7.3,   0.00,   0.00, 1001.8,   76.0, -999.0
06-04-2022, 00:35:57,    234,    2.7,    7.3,   0.00,   0.00, 1001.8,   75.9, -999.0
06-04-2022, 00:36:07,    223,    1.5,    7.3,   0.00,   0.00, 1001.7,   76.0, -999.0
06-04-2022, 00:36:17,    224,    0.2,    7.3,   0.00,   0.00, 1001.7,   75.8, -999.0
06-04-2022, 00:36:27,    223,    0.4,    7.3,   0.00,   0.00, 1001.7,   75.8, -999.0
06-04-2022, 00:36:37,    244,    1.3,    7.3,   0.00,   0.00, 1001.8,   76.0, -999.0
06-04-2022, 00:36:47,    230,    2.2,    7.3,   0.00,   0.00, 1001.8,   76.0, -999.0
06-04-2022, 00:37:07,    233,    0.1,    7.2,   0.00,   0.00, 1001.7,   75.7, -999.0
06-04-2022, 00:37:17,    246,    3.3,    7.3,   0.00,   0.00, 1001.7,   75.9, -999.0
06-04-2022, 00:37:27,    249,    2.7,    7.3,   0.00,   0.00, 1001.8,   75.9, -999.0
06-04-2022, 00:37:37,    236,    0.9,    7.3,   0.00,   0.00, 1001.7,   75.9, -999.0
06-04-2022, 00:37:47,    210,    0.3,    7.3,   0.00,   0.00, 1001.6,   75.7, -999.0
06-04-2022, 00:37:57,    245,    1.3,    7.3,   0.00,   0.00, 1001.8,   75.9, -999.0
06-04-2022, 00:38:07,    218,    2.7,    7.3,   0.00,   0.00, 1001.7,   76.0, -999.0
06-04-2022, 00:38:17,    214,    1.9,    7.3,   0.00,   0.00, 1001.7,   75.9, -999.0
06-04-2022, 00:38:27,    227,    4.6,    7.3,   0.00,   0.00, 1001.7,   75.9, -999.0
06-04-2022, 00:38:37,    250,    4.7,    7.2,   0.00,   0.00, 1001.7,   75.8, -999.0
06-04-2022, 00:38:46,    228,    1.5,    7.3,   0.00,   0.00, 1001.7,   75.8, -999.0
06-04-2022, 00:38:57,    202,    0.5,    7.2,   0.00,   0.00, 1001.6,   75.6, -999.0
06-04-2022, 00:39:06,    168,    2.0,    7.3,   0.00,   0.00, 1001.7,   75.9, -999.0
06-04-2022, 00:39:16,    162,    2.2,    7.3,   0.00,   0.00, 1001.7,   75.8, -999.0
06-04-2022, 00:39:26,    241,    1.2,    7.3,   0.00,   0.00, 1001.6,   75.8, -999.0
06-04-2022, 00:39:36,    279,    0.7,    7.3,   0.00,   0.00, 1001.7,   75.8, -999.0
06-04-2022, 00:39:46,    238,    1.5,    7.2,   0.00,   0.00, 1001.7,   75.9, -999.0
06-04-2022, 00:39:56,    234,    0.7,    7.2,   0.00,   0.00, 1001.6,   75.7, -999.0
06-04-2022, 00:40:06,    234,    0.0,    7.2,   0.00,   0.00, 1001.6,   75.4, -999.0
06-04-2022, 00:40:16,    234,    0.0,    7.2,   0.00,   0.00, 1001.5,   75.6, -999.0
06-04-2022, 00:40:26,    220,    1.9,    7.3,   0.00,   0.00, 1001.6,   75.9, -999.0
06-04-2022, 00:40:36,    216,    1.9,    7.3,   0.00,   0.00, 1001.6,   75.9, -999.0
06-04-2022, 00:40:46,    199,    1.0,    7.3,   0.00,   0.00, 1001.6,   76.0, -999.0
06-04-2022, 00:40:56,    197,    0.4,    7.3,   0.00,   0.00, 1001.7,   75.6, -999.0
06-04-2022, 00:41:06,    226,    1.6,    7.2,   0.00,   0.00, 1001.7,   75.7, -999.0
06-04-2022, 00:41:16,    219,    1.3,    7.3,   0.00,   0.00, 1001.7,   75.6, -999.0
06-04-2022, 00:41:26,    237,    2.8,    7.3,   0.00,   0.00, 1001.7,   75.8, -999.0
06-04-2022, 00:41:36,    200,    2.4,    7.3,   0.00,   0.00, 1001.7,   75.8, -999.0
06-04-2022, 00:41:46,    225,    1.2,    7.3,   0.00,   0.00, 1001.7,   75.7, -999.0
06-04-2022, 00:41:55,    226,    0.1,    7.2,   0.00,   0.00, 1001.7,   75.5, -999.0
06-04-2022, 00:42:06,    218,    0.0,    7.2,   0.00,   0.00, 1001.6,   75.3, -999.0
06-04-2022, 00:42:15,    206,    1.7,    7.3,   0.00,   0.00, 1001.7,   75.7, -999.0
06-04-2022, 00:42:25,    267,    2.0,    7.3,   0.00,   0.00, 1001.7,   75.7, -999.0
06-04-2022, 00:42:36,    240,    0.9,    7.3,   0.00,   0.00, 1001.6,   75.7, -999.0
06-04-2022, 00:42:45,    171,    0.6,    7.2,   0.00,   0.00, 1001.6,   75.5, -999.0
06-04-2022, 00:42:55,    204,    1.9,    7.3,   0.00,   0.00, 1001.6,   75.7, -999.0
06-04-2022, 00:43:05,    209,    2.5,    7.3,   0.00,   0.00, 1001.6,   75.6, -999.0
06-04-2022, 00:43:15,    203,    1.3,    7.3,   0.00,   0.00, 1001.7,   75.5, -999.0
06-04-2022, 00:43:25,    219,    1.8,    7.3,   0.00,   0.00, 1001.6,   75.5, -999.0
06-04-2022, 00:43:35,    197,    2.5,    7.3,   0.00,   0.00, 1001.6,   75.6, -999.0
06-04-2022, 00:43:45,    206,    1.0,    7.3,   0.00,   0.00, 1001.6,   75.5, -999.0
06-04-2022, 00:43:55,    193,    0.5,    7.3,   0.00,   0.00, 1001.6,   75.4, -999.0
06-04-2022, 00:44:05,    195,    0.1,    7.2,   0.00,   0.00, 1001.5,   75.2, -999.0
06-04-2022, 00:44:15,    195,    0.6,    7.3,   0.00,   0.00, 1001.6,   75.3, -999.0
06-04-2022, 00:44:25,    201,    1.4,    7.3,   0.00,   0.00, 1001.6,   75.2, -999.0
06-04-2022, 00:44:35,    211,    2.3,    7.4,   0.00,   0.00, 1001.6,   75.4, -999.0
06-04-2022, 00:44:45,    231,    2.1,    7.3,   0.00,   0.00, 1001.6,   75.3, -999.0
06-04-2022, 00:44:55,    216,    2.4,    7.3,   0.00,   0.00, 1001.6,   75.3, -999.0
06-04-2022, 00:45:05,    198,    1.0,    7.3,   0.00,   0.00, 1001.7,   75.4, -999.0
06-04-2022, 00:45:15,    214,    2.9,    7.3,   0.00,   0.00, 1001.6,   75.4, -999.0
06-04-2022, 00:45:25,    205,    2.1,    7.3,   0.00,   0.00, 1001.6,   75.3, -999.0
06-04-2022, 00:45:34,    225,    1.9,    7.3,   0.00,   0.00, 1001.6,   75.3, -999.0
06-04-2022, 00:45:45,    228,    0.8,    7.3,   0.00,   0.00, 1001.6,   75.2, -999.0
06-04-2022, 00:45:54,    234,    0.7,    7.3,   0.00,   0.00, 1001.6,   75.2, -999.0
06-04-2022, 00:46:04,    248,    1.1,    7.3,   0.00,   0.00, 1001.7,   75.3, -999.0
06-04-2022, 00:46:14,    252,    1.9,    7.3,   0.00,   0.00, 1001.7,   75.4, -999.0
06-04-2022, 00:46:24,    240,    3.0,    7.3,   0.00,   0.00, 1001.6,   75.2, -999.0
06-04-2022, 00:46:34,    228,    3.3,    7.2,   0.00,   0.00, 1001.6,   75.2, -999.0
06-04-2022, 00:46:44,    231,    4.2,    7.3,   0.00,   0.00, 1001.6,   75.2, -999.0
06-04-2022, 00:46:54,    213,    2.0,    7.3,   0.00,   0.00, 1001.6,   75.2, -999.0